STARLINK-6235, 57094

Orbit data source: Space-Track

STARLINK-6235, 57094 is a payload satellite owned by SpaceX/Seattle (US) in LEO that was launched on Thu, 22 Jun 2023 UTC via an FALCON 9 launch vehicle from the Air Force Western Test Range (AFWTR). Payload-class satellites include a variety of spacecraft equipped with specific instruments for various scientific and technological missions. These include communications satellites like Starlink; space stations such as the ISS; scientific satellites like the Hubble; Earth observation satellites from companies like Planet Labs, Umbra, and HawkEye 360; GPS; miniature CubeSats for education and research; and military/defense satellites.

Loading next visibility...
Identifier
57094, 2023-088AY
Orbit
LEO
Country
Flag of USUS
Related business
Manufacturer
SpaceX/Seattle
Mission
Operational Commercial Communications
Bus & Motor
STARLINK, Unknown motor
Mass
305 kg wet, ~290 kg dry
Launch date (UTC)
Icon of a cake. It is the launch day of the satellite!2023-06-22 (3 years ago)
Launch vehicle
FALCON 9
Launch site
Air Force Western Test Range (AFWTR)
Object type
Payload
Rocket body
Debris
Shape & HBR
Box + 1 Pan, 10.1 m
Radar Cross Section
11.087 m², Large (>1 m²)

Expand to show TLE details & history
Last TLE update: 2 days ago

TLE from 2 days ago
0 STARLINK-6235
1 57094U 23088AY  26171.17096756  .00000253  00000-0  18740-4 0  9998
2 57094  43.0051 237.3498 0001772 295.5614  64.5055 15.27578245166177
Epoch: 2026-06-20T04:06Z
TLE epoch observation values (Epoch: 2026-06-20T04:06:11.597Z)
Latitude
0.00003°
Longitude
-92.58791°
Altitude
482.307 km
Speed
7.626 km/s
True Right ascension
15h 49m 23s
True Declination
0° 00' 00"
Sunlit
Object was in full shadow at epoch
Visualization orbit readout
Latitude
Unknown
Longitude
Unknown
Altitude
Unknown
Speed
Unknown
Apparent Right ascension
Unknown
Apparent Declination
Unknown
Sunlit
N/A
Visualization observer readout
Local Sidereal Time
21:32:42
Azimuth
Unknown
Elevation
Unknown
Doppler factor
Unknown
Orbital elements
Apogee altitude
486.215 km
Perigee altitude
483.783 km
Semi-major axis
6,863.136 km
Eccentricity
0.00018
Inclination
43.0051°
RAAN
237.3498°
Arg. of periapsis
295.5614°
True anomaly
64.52383°
Mean anomaly
64.5055°
Eccentric anomaly
64.51466°
Mean motion
3.81733 °/min
Orbital period
94.31 mins
BSTAR
0.00001874
Loading maneuver chart data...
Computing Atmospheric mass density...
Loading historical data...
Loading historical data...
Loading historical data...
Loading historical data...
Loading historical data...
Loading historical data...
Loading historical data...

Documentation

Showing up to 5 results
|